Time,TemperatureF,DewpointF,PressureIn,WindDirection,WindDirectionDegrees,WindSpeedMPH,WindSpeedGustMPH,Humidity,HourlyPrecipIn,Conditions,Clouds,dailyrainin,SolarRadiationWatts/m^2,SoftwareType,DateUTC
2013-05-02 00:23:00,65.0,62.0,-100.00,NNE,28,8.0,13.0,90,0.00,,,0.00,0.000000,,2013-05-02 04:23:00,
2013-05-02 00:33:00,65.0,62.0,-100.00,NNE,28,8.0,13.0,90,0.00,,,0.00,0.000000,,2013-05-02 04:33:00,
2013-05-02 00:43:00,65.0,62.0,-100.00,NNE,28,8.0,13.0,90,0.00,,,0.00,0.000000,,2013-05-02 04:43:00,
2013-05-02 00:52:00,65.0,62.0,-100.00,NNE,28,8.0,13.0,90,0.00,,,0.00,0.000000,,2013-05-02 04:52:00,
2013-05-02 01:22:00,65.0,63.0,-100.00,NNE,26,6.0,14.0,92,0.00,,,0.00,0.000000,,2013-05-02 05:22:00,
2013-05-02 01:32:00,65.0,63.0,-100.00,NNE,26,6.0,14.0,92,0.00,,,0.00,0.000000,,2013-05-02 05:32:00,
2013-05-02 01:42:00,65.0,63.0,-100.00,NNE,26,6.0,14.0,92,0.00,,,0.00,0.000000,,2013-05-02 05:42:00,
2013-05-02 01:52:00,65.0,63.0,-100.00,NNE,26,6.0,14.0,92,0.00,,,0.00,0.000000,,2013-05-02 05:52:00,
2013-05-02 02:22:00,65.0,63.0,-100.00,NNE,31,7.0,15.0,92,0.00,,,0.00,0.000000,,2013-05-02 06:22:00,
2013-05-02 02:32:00,65.0,63.0,-100.00,NNE,31,7.0,15.0,92,0.00,,,0.00,0.000000,,2013-05-02 06:32:00,
2013-05-02 02:42:00,65.0,63.0,-100.00,NNE,31,7.0,15.0,92,0.00,,,0.00,0.000000,,2013-05-02 06:42:00,
2013-05-02 02:52:00,65.0,63.0,-100.00,NNE,31,7.0,15.0,92,0.00,,,0.00,0.000000,,2013-05-02 06:52:00,
2013-05-02 03:21:00,65.0,63.0,-100.00,NNE,32,8.0,13.0,92,0.00,,,0.00,0.000000,,2013-05-02 07:21:00,
2013-05-02 03:32:00,65.0,63.0,-100.00,NNE,32,8.0,13.0,92,0.00,,,0.00,0.000000,,2013-05-02 07:32:00,
2013-05-02 03:42:00,65.0,63.0,-100.00,NNE,32,8.0,13.0,92,0.00,,,0.00,0.000000,,2013-05-02 07:42:00,
2013-05-02 03:52:00,65.0,63.0,-100.00,NNE,32,8.0,13.0,92,0.00,,,0.00,0.000000,,2013-05-02 07:52:00,
2013-05-02 04:22:00,65.0,63.0,-100.00,NNE,32,8.0,13.0,93,0.00,,,0.00,0.000000,,2013-05-02 08:22:00,
2013-05-02 04:32:00,65.0,63.0,-100.00,NNE,32,8.0,13.0,93,0.00,,,0.00,0.000000,,2013-05-02 08:32:00,
2013-05-02 04:42:00,65.0,63.0,-100.00,NNE,32,8.0,13.0,93,0.00,,,0.00,0.000000,,2013-05-02 08:42:00,
2013-05-02 04:52:00,65.0,63.0,-100.00,NNE,32,8.0,13.0,93,0.00,,,0.00,0.000000,,2013-05-02 08:52:00,
2013-05-02 05:22:00,65.0,63.0,-100.00,NNE,32,8.0,13.0,93,0.00,,,0.00,0.000000,,2013-05-02 09:22:00,
2013-05-02 05:33:00,65.0,63.0,-100.00,NNE,32,8.0,13.0,93,0.00,,,0.00,0.000000,,2013-05-02 09:33:00,
2013-05-02 05:42:00,65.0,63.0,-100.00,NNE,32,8.0,13.0,93,0.00,,,0.00,0.000000,,2013-05-02 09:42:00,
2013-05-02 05:52:00,65.0,63.0,-100.00,NNE,32,8.0,13.0,93,0.00,,,0.00,0.000000,,2013-05-02 09:52:00,
2013-05-02 06:23:00,65.0,63.0,-100.00,NE,34,7.0,13.0,93,0.00,,,0.00,0.000000,,2013-05-02 10:23:00,
2013-05-02 06:33:00,65.0,63.0,-100.00,NE,34,7.0,13.0,93,0.00,,,0.00,0.000000,,2013-05-02 10:33:00,
2013-05-02 06:42:00,65.0,63.0,-100.00,NE,34,7.0,13.0,93,0.00,,,0.00,0.000000,,2013-05-02 10:42:00,
2013-05-02 06:52:00,65.0,63.0,-100.00,NE,34,7.0,13.0,93,0.00,,,0.00,0.000000,,2013-05-02 10:52:00,
2013-05-02 07:22:00,66.0,63.0,-100.00,NE,41,6.0,14.0,91,0.00,,,0.00,2.000000,,2013-05-02 11:22:00,
2013-05-02 07:32:00,66.0,63.0,-100.00,NE,41,6.0,14.0,91,0.00,,,0.00,2.000000,,2013-05-02 11:32:00,
2013-05-02 07:42:00,66.0,63.0,-100.00,NE,41,6.0,14.0,91,0.00,,,0.00,2.000000,,2013-05-02 11:42:00,
2013-05-02 07:52:00,66.0,63.0,-100.00,NE,41,6.0,14.0,91,0.00,,,0.00,2.000000,,2013-05-02 11:52:00,
2013-05-02 08:22:00,66.0,62.0,-100.00,NE,49,7.0,15.0,88,0.00,,,0.00,47.000000,,2013-05-02 12:22:00,
2013-05-02 08:32:00,66.0,62.0,-100.00,NE,49,7.0,15.0,88,0.00,,,0.00,47.000000,,2013-05-02 12:32:00,
2013-05-02 08:42:00,66.0,62.0,-100.00,NE,49,7.0,15.0,88,0.00,,,0.00,47.000000,,2013-05-02 12:42:00,
2013-05-02 08:52:00,66.0,62.0,-100.00,NE,49,7.0,15.0,88,0.00,,,0.00,47.000000,,2013-05-02 12:52:00,
2013-05-02 09:22:00,68.0,64.0,-100.00,NE,37,6.0,15.0,86,0.00,,,0.00,125.000000,,2013-05-02 13:22:00,
2013-05-02 09:32:00,68.0,64.0,-100.00,NE,37,6.0,15.0,86,0.00,,,0.00,125.000000,,2013-05-02 13:32:00,
2013-05-02 09:42:00,68.0,64.0,-100.00,NE,37,6.0,15.0,86,0.00,,,0.00,125.000000,,2013-05-02 13:42:00,
2013-05-02 09:52:00,68.0,64.0,-100.00,NE,37,6.0,15.0,86,0.00,,,0.00,125.000000,,2013-05-02 13:52:00,
2013-05-02 10:22:00,71.0,62.0,-100.00,ENE,63,9.0,19.0,74,0.00,,,0.00,518.000000,,2013-05-02 14:22:00,
2013-05-02 10:32:00,71.0,62.0,-100.00,ENE,63,9.0,19.0,74,0.00,,,0.00,518.000000,,2013-05-02 14:32:00,
2013-05-02 10:43:00,71.0,62.0,-100.00,ENE,63,9.0,19.0,74,0.00,,,0.00,518.000000,,2013-05-02 14:43:00,
2013-05-02 10:52:00,71.0,62.0,-100.00,ENE,63,9.0,19.0,74,0.00,,,0.00,518.000000,,2013-05-02 14:52:00,
2013-05-02 11:22:00,71.0,62.0,-100.00,ENE,57,10.0,19.0,74,0.00,,,0.00,458.000000,,2013-05-02 15:22:00,
2013-05-02 11:33:00,71.0,62.0,-100.00,ENE,57,10.0,19.0,74,0.00,,,0.00,458.000000,,2013-05-02 15:33:00,
2013-05-02 11:43:00,71.0,62.0,-100.00,ENE,57,10.0,19.0,74,0.00,,,0.00,458.000000,,2013-05-02 15:43:00,
2013-05-02 12:23:00,73.0,63.0,-100.00,NE,52,12.0,26.0,71,0.00,,,0.00,641.000000,,2013-05-02 16:23:00,
2013-05-02 12:32:00,73.0,63.0,-100.00,NE,52,12.0,26.0,71,0.00,,,0.00,641.000000,,2013-05-02 16:32:00,
2013-05-02 12:43:00,73.0,63.0,-100.00,NE,52,12.0,26.0,71,0.00,,,0.00,641.000000,,2013-05-02 16:43:00,
2013-05-02 12:52:00,73.0,63.0,-100.00,NE,52,12.0,26.0,71,0.00,,,0.00,641.000000,,2013-05-02 16:52:00,
2013-05-02 13:22:00,71.0,63.0,-100.00,NE,42,10.0,20.0,76,0.00,,,0.00,466.000000,,2013-05-02 17:22:00,
2013-05-02 13:32:00,71.0,63.0,-100.00,NE,42,10.0,20.0,76,0.00,,,0.00,466.000000,,2013-05-02 17:32:00,
2013-05-02 13:42:00,71.0,63.0,-100.00,NE,42,10.0,20.0,76,0.00,,,0.00,466.000000,,2013-05-02 17:42:00,
2013-05-02 13:52:00,71.0,63.0,-100.00,NE,42,10.0,20.0,76,0.00,,,0.00,466.000000,,2013-05-02 17:52:00,
2013-05-02 14:22:00,72.0,64.0,-100.00,NE,46,10.0,19.0,75,0.00,,,0.00,474.000000,,2013-05-02 18:22:00,
2013-05-02 14:32:00,72.0,64.0,-100.00,NE,46,10.0,19.0,75,0.00,,,0.00,474.000000,,2013-05-02 18:32:00,
2013-05-02 14:42:00,72.0,64.0,-100.00,NE,46,10.0,19.0,75,0.00,,,0.00,474.000000,,2013-05-02 18:42:00,
2013-05-02 14:52:00,72.0,64.0,-100.00,NE,46,10.0,19.0,75,0.00,,,0.00,474.000000,,2013-05-02 18:52:00,
2013-05-02 15:22:00,74.0,64.0,-100.00,NE,46,9.0,20.0,71,0.00,,,0.00,732.000000,,2013-05-02 19:22:00,
2013-05-02 15:32:00,74.0,64.0,-100.00,NE,46,9.0,20.0,71,0.00,,,0.00,732.000000,,2013-05-02 19:32:00,
2013-05-02 15:42:00,74.0,64.0,-100.00,NE,46,9.0,20.0,71,0.00,,,0.00,732.000000,,2013-05-02 19:42:00,
2013-05-02 15:52:00,74.0,64.0,-100.00,NE,46,9.0,20.0,71,0.00,,,0.00,732.000000,,2013-05-02 19:52:00,
2013-05-02 16:22:00,74.0,64.0,-100.00,NE,49,9.0,22.0,70,0.00,,,0.00,437.000000,,2013-05-02 20:22:00,
2013-05-02 16:32:00,74.0,64.0,-100.00,NE,49,9.0,22.0,70,0.00,,,0.00,437.000000,,2013-05-02 20:32:00,
2013-05-02 16:42:00,74.0,64.0,-100.00,NE,49,9.0,22.0,70,0.00,,,0.00,437.000000,,2013-05-02 20:42:00,
2013-05-02 16:52:00,74.0,64.0,-100.00,NE,49,9.0,22.0,70,0.00,,,0.00,437.000000,,2013-05-02 20:52:00,
2013-05-02 17:21:00,74.0,62.0,-100.00,ENE,63,8.0,22.0,66,0.00,,,0.00,400.000000,,2013-05-02 21:21:00,
2013-05-02 17:33:00,74.0,62.0,-100.00,ENE,63,8.0,22.0,66,0.00,,,0.00,400.000000,,2013-05-02 21:33:00,
2013-05-02 17:42:00,74.0,62.0,-100.00,ENE,63,8.0,22.0,66,0.00,,,0.00,400.000000,,2013-05-02 21:42:00,
2013-05-02 17:53:00,74.0,62.0,-100.00,ENE,63,8.0,22.0,66,0.00,,,0.00,400.000000,,2013-05-02 21:53:00,
2013-05-02 18:22:00,72.0,62.0,-100.00,NE,48,10.0,18.0,70,0.00,,,0.00,284.000000,,2013-05-02 22:22:00,
2013-05-02 18:32:00,72.0,62.0,-100.00,NE,48,10.0,18.0,70,0.00,,,0.00,284.000000,,2013-05-02 22:32:00,
2013-05-02 18:42:00,72.0,62.0,-100.00,NE,48,10.0,18.0,70,0.00,,,0.00,284.000000,,2013-05-02 22:42:00,
2013-05-02 18:52:00,72.0,62.0,-100.00,NE,48,10.0,18.0,70,0.00,,,0.00,284.000000,,2013-05-02 22:52:00,
2013-05-02 19:22:00,70.0,62.0,-100.00,ENE,58,7.0,20.0,75,0.00,,,0.00,158.000000,,2013-05-02 23:22:00,
2013-05-02 19:32:00,70.0,62.0,-100.00,ENE,58,7.0,20.0,75,0.00,,,0.00,158.000000,,2013-05-02 23:32:00,
2013-05-02 19:42:00,70.0,62.0,-100.00,ENE,58,7.0,20.0,75,0.00,,,0.00,158.000000,,2013-05-02 23:42:00,
2013-05-02 19:51:00,70.0,62.0,-100.00,ENE,58,7.0,20.0,75,0.00,,,0.00,158.000000,,2013-05-02 23:51:00,
2013-05-02 20:22:00,67.0,61.0,-100.00,NE,49,9.0,19.0,82,0.00,,,0.00,32.000000,,2013-05-03 00:22:00,
2013-05-02 20:32:00,67.0,61.0,-100.00,NE,49,9.0,19.0,82,0.00,,,0.00,32.000000,,2013-05-03 00:32:00,
2013-05-02 20:42:00,67.0,61.0,-100.00,NE,49,9.0,19.0,82,0.00,,,0.00,32.000000,,2013-05-03 00:42:00,
2013-05-02 20:52:00,67.0,61.0,-100.00,NE,49,9.0,19.0,82,0.00,,,0.00,32.000000,,2013-05-03 00:52:00,
2013-05-02 21:21:00,66.0,60.0,-100.00,NE,42,10.0,18.0,82,0.00,,,0.00,1.000000,,2013-05-03 01:21:00,
2013-05-02 21:32:00,66.0,60.0,-100.00,NE,42,10.0,18.0,82,0.00,,,0.00,1.000000,,2013-05-03 01:32:00,
2013-05-02 21:42:00,66.0,60.0,-100.00,NE,42,10.0,18.0,82,0.00,,,0.00,1.000000,,2013-05-03 01:42:00,
2013-05-02 21:52:00,66.0,60.0,-100.00,NE,42,10.0,18.0,82,0.00,,,0.00,1.000000,,2013-05-03 01:52:00,
2013-05-02 22:22:00,65.0,60.0,-100.00,NE,39,9.0,24.0,84,0.00,,,0.00,0.000000,,2013-05-03 02:22:00,
2013-05-02 22:32:00,65.0,60.0,-100.00,NE,39,9.0,24.0,84,0.00,,,0.00,0.000000,,2013-05-03 02:32:00,
2013-05-02 22:42:00,65.0,60.0,-100.00,NE,39,9.0,24.0,84,0.00,,,0.00,0.000000,,2013-05-03 02:42:00,
2013-05-02 22:52:00,65.0,60.0,-100.00,NE,39,9.0,24.0,84,0.00,,,0.00,0.000000,,2013-05-03 02:52:00,
2013-05-02 23:21:00,63.0,60.0,-100.00,NE,39,8.0,17.0,89,0.00,,,0.00,0.000000,,2013-05-03 03:21:00,
2013-05-02 23:33:00,63.0,60.0,-100.00,NE,39,8.0,17.0,89,0.00,,,0.00,0.000000,,2013-05-03 03:33:00,
2013-05-02 23:43:00,63.0,60.0,-100.00,NE,39,8.0,17.0,89,0.00,,,0.00,0.000000,,2013-05-03 03:43:00,
2013-05-02 23:53:00,63.0,60.0,-100.00,NE,39,8.0,17.0,89,0.00,,,0.00,0.000000,,2013-05-03 03:53:00,